TimeCDT,TemperatureF,Dew PointF,Humidity,Sea Level PressureIn,VisibilityMPH,Wind Direction,Wind SpeedMPH,Gust SpeedMPH,PrecipitationIn,Events,Conditions,WindDirDegrees,DateUTC
12:37 AM,71.6,69.8,94,29.86,1.8,South,9.2,-,0.06,Rain,Heavy Rain,180,2013-09-21 05:37:00
12:50 AM,71.6,69.8,94,29.84,2.0,South,6.9,-,0.32,Rain,Light Rain,190,2013-09-21 05:50:00
12:53 AM,72.0,70.0,93,29.82,4.0,South,6.9,-,0.32,Rain,Light Rain,180,2013-09-21 05:53:00
1:18 AM,71.6,69.8,94,29.84,2.0,South,5.8,-,0.03,Rain,Heavy Rain,180,2013-09-21 06:18:00
1:25 AM,71.6,69.8,94,29.83,0.8,SSE,6.9,-,0.22,Rain,Heavy Rain,160,2013-09-21 06:25:00
1:33 AM,71.6,69.8,94,29.83,1.8,SSE,4.6,-,0.34,Rain,Rain,160,2013-09-21 06:33:00
1:36 AM,71.6,69.8,94,29.83,3.0,SSE,4.6,-,0.34,Rain,Rain,160,2013-09-21 06:36:00
1:45 AM,71.6,71.6,100,29.83,2.5,SW,4.6,-,0.37,Rain,Heavy Rain,220,2013-09-21 06:45:00
1:50 AM,71.6,69.8,94,29.83,1.5,WSW,4.6,-,0.40,Rain,Heavy Rain,240,2013-09-21 06:50:00
1:53 AM,71.1,70.0,96,29.81,1.5,WSW,3.5,-,0.44,Rain,Heavy Rain,240,2013-09-21 06:53:00
2:08 AM,71.6,69.8,94,29.82,2.0,Calm,Calm,-,0.08,Rain,Rain,0,2013-09-21 07:08:00
2:15 AM,71.6,69.8,94,29.82,4.0,SSW,5.8,-,0.08,Rain,Light Rain,200,2013-09-21 07:15:00
2:24 AM,71.6,69.8,94,29.81,5.0,SSW,4.6,-,0.09,Rain,Light Rain,200,2013-09-21 07:24:00
2:53 AM,72.0,70.0,93,29.77,7.0,SSW,4.6,-,0.11,Rain,Light Rain,200,2013-09-21 07:53:00
3:46 AM,71.6,71.6,100,29.78,5.0,South,5.8,-,0.03,Rain,Rain,180,2013-09-21 08:46:00
3:53 AM,72.0,71.1,97,29.76,2.0,SSE,5.8,-,0.08,Rain,Heavy Rain,160,2013-09-21 08:53:00
4:01 AM,71.6,71.6,100,29.77,1.8,SE,5.8,-,0.08,Rain,Heavy Rain,130,2013-09-21 09:01:00
4:07 AM,71.6,71.6,100,29.77,3.0,SE,5.8,-,0.10,Rain,Rain,140,2013-09-21 09:07:00
4:53 AM,73.0,71.1,93,29.73,4.0,South,5.8,-,0.16,Rain,Light Rain,180,2013-09-21 09:53:00
5:16 AM,71.6,69.8,94,29.77,1.8,SSW,10.4,-,0.09,Rain,Heavy Rain,210,2013-09-21 10:16:00
5:23 AM,71.6,69.8,94,29.77,1.0,SSW,10.4,18.4,0.34,Rain,Heavy Rain,200,2013-09-21 10:23:00
5:32 AM,71.6,69.8,94,29.77,1.0,SW,5.8,-,0.58,Rain,Heavy Rain,230,2013-09-21 10:32:00
5:53 AM,72.0,70.0,93,29.75,2.5,WSW,8.1,-,0.71,Rain,Heavy Rain,250,2013-09-21 10:53:00
6:04 AM,69.8,69.8,100,29.79,1.8,NNW,12.7,19.6,0.08,Rain,Heavy Rain,330,2013-09-21 11:04:00
6:15 AM,68.0,66.2,94,29.76,1.5,NNE,13.8,23.0,0.26,Rain,Heavy Rain,30,2013-09-21 11:15:00
6:20 AM,68.0,66.2,94,29.79,1.8,NNW,9.2,20.7,0.31,Rain,Heavy Rain,340,2013-09-21 11:20:00
6:32 AM,66.2,66.2,100,29.80,1.8,NNE,11.5,-,0.46,Rain,Heavy Rain,20,2013-09-21 11:32:00
6:53 AM,66.0,64.9,96,29.78,1.5,North,10.4,-,0.68,Rain,Heavy Rain,10,2013-09-21 11:53:00
7:02 AM,66.2,64.4,94,29.80,2.0,North,12.7,-,0.09,Rain,Heavy Rain,10,2013-09-21 12:02:00
7:26 AM,66.2,64.4,94,29.82,2.5,Calm,Calm,-,0.17,Rain,Rain,0,2013-09-21 12:26:00
7:34 AM,66.2,64.4,94,29.82,2.5,Variable,3.5,-,0.18,Rain,Rain,0,2013-09-21 12:34:00
7:41 AM,66.2,64.4,94,29.82,2.0,Variable,3.5,-,0.20,Rain,Rain,0,2013-09-21 12:41:00
7:53 AM,66.9,64.9,93,29.80,2.5,North,5.8,-,0.22,Rain,Rain,10,2013-09-21 12:53:00
8:01 AM,66.2,64.4,94,29.82,2.5,North,5.8,-,0.01,Rain,Rain,10,2013-09-21 13:01:00
8:18 AM,66.2,64.4,94,29.81,4.0,NNE,6.9,-,0.04,Rain,Light Rain,20,2013-09-21 13:18:00
8:41 AM,66.2,64.4,94,29.83,2.0,North,4.6,-,0.09,Rain,Rain,360,2013-09-21 13:41:00
8:51 AM,66.2,64.4,94,29.83,5.0,North,6.9,-,0.10,Rain,Light Rain,10,2013-09-21 13:51:00
8:53 AM,66.9,64.9,93,29.81,6.0,North,4.6,-,0.10,Rain,Light Rain,10,2013-09-21 13:53:00
9:31 AM,66.2,64.4,94,29.84,4.0,NNE,4.6,-,0.06,Rain,Rain,20,2013-09-21 14:31:00
9:43 AM,66.2,64.4,94,29.84,2.5,NNE,4.6,-,0.08,Rain,Rain,20,2013-09-21 14:43:00
9:53 AM,66.9,64.9,93,29.82,4.0,North,4.6,-,0.11,Rain,Rain,10,2013-09-21 14:53:00
10:11 AM,66.2,64.4,94,29.84,2.5,North,6.9,-,0.05,Rain,Rain,10,2013-09-21 15:11:00
10:21 AM,66.2,64.4,94,29.85,4.0,North,5.8,-,0.06,Rain,Light Rain,350,2013-09-21 15:21:00
10:53 AM,68.0,66.0,93,29.83,10.0,NNW,4.6,-,0.07,Rain,Light Rain,340,2013-09-21 15:53:00
11:00 AM,68.0,66.2,94,29.84,10.0,Calm,Calm,-,0.00,Rain,Light Rain,0,2013-09-21 16:00:00
11:07 AM,69.8,66.2,88,29.84,10.0,NNW,4.6,-,0.01,Rain,Light Rain,340,2013-09-21 16:07:00
11:41 AM,68.0,66.2,94,29.85,10.0,North,4.6,-,0.01,,Overcast,360,2013-09-21 16:41:00
11:53 AM,69.1,66.0,90,29.83,10.0,North,4.6,-,0.01,,Overcast,350,2013-09-21 16:53:00
12:53 PM,71.1,66.0,84,29.83,10.0,NNW,5.8,-,0.00,,Overcast,340,2013-09-21 17:53:00
1:53 PM,72.0,66.0,81,29.81,10.0,North,9.2,-,N/A,,Overcast,350,2013-09-21 18:53:00
2:31 PM,73.4,64.4,73,29.82,10.0,North,8.1,-,N/A,,Mostly Cloudy,350,2013-09-21 19:31:00
2:33 PM,73.4,64.4,73,29.82,10.0,North,10.4,-,N/A,,Mostly Cloudy,350,2013-09-21 19:33:00
2:53 PM,73.0,64.0,73,29.79,10.0,North,10.4,-,N/A,,Mostly Cloudy,350,2013-09-21 19:53:00
3:53 PM,72.0,62.1,71,29.80,10.0,NNW,9.2,-,N/A,,Mostly Cloudy,330,2013-09-21 20:53:00
4:26 PM,73.4,62.6,69,29.81,10.0,NNW,4.6,-,N/A,,Mostly Cloudy,340,2013-09-21 21:26:00
4:53 PM,75.0,61.0,62,29.79,10.0,North,4.6,-,N/A,,Mostly Cloudy,350,2013-09-21 21:53:00
5:53 PM,73.0,59.0,61,29.80,10.0,NNW,6.9,-,N/A,,Scattered Clouds,340,2013-09-21 22:53:00
6:53 PM,66.9,59.0,76,29.81,10.0,North,4.6,-,N/A,,Scattered Clouds,10,2013-09-21 23:53:00
7:53 PM,66.0,57.0,73,29.82,10.0,North,6.9,-,N/A,,Partly Cloudy,360,2013-09-22 00:53:00
8:53 PM,63.0,55.9,78,29.84,10.0,North,6.9,-,N/A,,Clear,360,2013-09-22 01:53:00
9:53 PM,61.0,55.9,83,29.85,10.0,North,4.6,-,N/A,,Clear,350,2013-09-22 02:53:00
10:53 PM,60.1,55.0,83,29.85,10.0,North,4.6,-,N/A,,Clear,350,2013-09-22 03:53:00
11:53 PM,57.9,54.0,87,29.85,10.0,NNW,4.6,-,N/A,,Partly Cloudy,340,2013-09-22 04:53:00